TimeEDT,TemperatureF,Dew PointF,Humidity,Sea Level PressureIn,VisibilityMPH,Wind Direction,Wind SpeedMPH,Gust SpeedMPH,PrecipitationIn,Events,Conditions,WindDirDegrees,DateUTC
12:15 AM,42.8,35.6,76,30.48,10.0,NNE,8.1,-,N/A,,Clear,30,2013-04-22 04:15:00
12:35 AM,41.0,35.6,81,30.49,10.0,NNE,6.9,-,N/A,,Clear,20,2013-04-22 04:35:00
12:55 AM,41.0,35.6,81,30.48,10.0,North,8.1,-,N/A,,Clear,10,2013-04-22 04:55:00
1:15 AM,39.2,35.6,87,30.46,10.0,North,8.1,-,N/A,,Clear,10,2013-04-22 05:15:00
1:35 AM,39.2,35.6,87,30.46,10.0,North,8.1,-,N/A,,Clear,10,2013-04-22 05:35:00
1:55 AM,37.4,35.6,93,30.45,10.0,North,8.1,-,N/A,,Clear,10,2013-04-22 05:55:00
2:15 AM,37.4,35.6,93,30.45,10.0,North,6.9,-,N/A,,Clear,10,2013-04-22 06:15:00
2:35 AM,37.4,35.6,93,30.45,10.0,North,4.6,-,N/A,,Clear,10,2013-04-22 06:35:00
2:55 AM,37.4,35.6,93,30.44,10.0,North,6.9,-,N/A,,Clear,10,2013-04-22 06:55:00
3:15 AM,37.4,35.6,93,30.43,10.0,North,8.1,-,N/A,,Clear,360,2013-04-22 07:15:00
3:35 AM,37.4,35.6,93,30.42,10.0,North,6.9,-,N/A,,Clear,360,2013-04-22 07:35:00
3:55 AM,37.4,33.8,87,30.41,10.0,NNE,8.1,-,N/A,,Clear,20,2013-04-22 07:55:00
4:15 AM,37.4,33.8,87,30.42,10.0,NNE,6.9,-,N/A,,Clear,20,2013-04-22 08:15:00
4:35 AM,37.4,33.8,87,30.42,10.0,NNE,6.9,-,N/A,,Scattered Clouds,20,2013-04-22 08:35:00
4:55 AM,37.4,33.8,87,30.41,10.0,NNE,6.9,-,N/A,,Scattered Clouds,20,2013-04-22 08:55:00
5:15 AM,39.2,35.6,87,30.40,10.0,NNE,9.2,-,N/A,,Scattered Clouds,20,2013-04-22 09:15:00
5:55 AM,37.4,33.8,87,30.40,10.0,NNE,6.9,-,N/A,,Scattered Clouds,20,2013-04-22 09:55:00
6:15 AM,37.4,33.8,87,30.40,10.0,North,8.1,-,N/A,,Clear,360,2013-04-22 10:15:00
6:35 AM,37.4,35.6,93,30.39,10.0,NNE,6.9,-,N/A,,Clear,20,2013-04-22 10:35:00
6:55 AM,37.4,35.6,93,30.40,10.0,North,8.1,-,N/A,,Clear,10,2013-04-22 10:55:00
7:15 AM,41.0,35.6,81,30.39,10.0,NNE,11.5,-,N/A,,Clear,20,2013-04-22 11:15:00
7:35 AM,41.0,37.4,87,30.40,10.0,NNE,10.4,16.1,N/A,,Clear,20,2013-04-22 11:35:00
7:55 AM,42.8,37.4,81,30.39,10.0,NNE,11.5,-,N/A,,Clear,20,2013-04-22 11:55:00
8:15 AM,44.6,39.2,81,30.39,10.0,NNE,10.4,-,N/A,,Clear,20,2013-04-22 12:15:00
8:35 AM,44.6,39.2,81,30.39,10.0,NNE,11.5,-,N/A,,Scattered Clouds,20,2013-04-22 12:35:00
8:55 AM,44.6,41.0,87,30.38,10.0,NNE,11.5,18.4,N/A,,Scattered Clouds,30,2013-04-22 12:55:00
9:15 AM,46.4,41.0,81,30.38,10.0,NE,10.4,19.6,N/A,,Scattered Clouds,40,2013-04-22 13:15:00
9:35 AM,46.4,41.0,81,30.38,10.0,NNE,10.4,20.7,N/A,,Mostly Cloudy,30,2013-04-22 13:35:00
9:55 AM,50.0,42.8,76,30.37,10.0,NNE,10.4,17.3,N/A,,Mostly Cloudy,30,2013-04-22 13:55:00
10:15 AM,51.8,42.8,71,30.37,10.0,NNE,12.7,17.3,N/A,,Overcast,20,2013-04-22 14:15:00
10:35 AM,51.8,42.8,71,30.37,10.0,NNE,15.0,19.6,N/A,,Mostly Cloudy,30,2013-04-22 14:35:00
10:55 AM,53.6,44.6,72,30.37,10.0,North,16.1,19.6,N/A,,Mostly Cloudy,10,2013-04-22 14:55:00
11:15 AM,55.4,44.6,67,30.37,10.0,NNE,17.3,-,N/A,,Mostly Cloudy,30,2013-04-22 15:15:00
11:35 AM,55.4,44.6,67,30.36,10.0,NE,13.8,21.9,N/A,,Overcast,40,2013-04-22 15:35:00
11:55 AM,59.0,44.6,59,30.36,10.0,NNE,15.0,23.0,N/A,,Overcast,30,2013-04-22 15:55:00
12:15 PM,59.0,44.6,59,30.36,10.0,NNE,16.1,19.6,N/A,,Overcast,30,2013-04-22 16:15:00
12:35 PM,59.0,44.6,59,30.35,10.0,NNE,15.0,20.7,N/A,,Overcast,20,2013-04-22 16:35:00
12:55 PM,59.0,44.6,59,30.33,10.0,NE,17.3,25.3,N/A,,Overcast,40,2013-04-22 16:55:00
1:15 PM,59.0,44.6,59,30.33,10.0,NNE,13.8,21.9,N/A,,Overcast,20,2013-04-22 17:15:00
1:35 PM,59.0,42.8,55,30.32,10.0,NE,15.0,23.0,N/A,,Overcast,50,2013-04-22 17:35:00
1:55 PM,59.0,44.6,59,30.32,10.0,NE,15.0,20.7,N/A,,Overcast,40,2013-04-22 17:55:00
2:15 PM,59.0,44.6,59,30.31,10.0,NE,20.7,-,N/A,,Overcast,40,2013-04-22 18:15:00
2:35 PM,59.0,44.6,59,30.30,10.0,NE,13.8,25.3,N/A,,Overcast,40,2013-04-22 18:35:00
2:55 PM,59.0,44.6,59,30.29,10.0,NNE,16.1,25.3,N/A,,Overcast,30,2013-04-22 18:55:00
3:15 PM,57.2,46.4,67,30.28,10.0,NE,17.3,25.3,N/A,,Overcast,40,2013-04-22 19:15:00
3:35 PM,57.2,46.4,67,30.27,10.0,NNE,19.6,26.5,N/A,,Overcast,30,2013-04-22 19:35:00
3:55 PM,57.2,46.4,67,30.27,10.0,NNE,19.6,25.3,N/A,,Overcast,30,2013-04-22 19:55:00
4:15 PM,55.4,48.2,77,30.27,7.0,NNE,12.7,17.3,N/A,Rain,Light Rain,20,2013-04-22 20:15:00
4:35 PM,53.6,50.0,88,30.28,10.0,NNE,16.1,23.0,N/A,,Overcast,30,2013-04-22 20:35:00
4:55 PM,51.8,50.0,94,30.28,4.0,North,12.7,-,N/A,,Light Drizzle,10,2013-04-22 20:55:00
5:15 PM,51.8,50.0,94,30.28,4.0,NNE,12.7,-,0.01,Rain,Rain,20,2013-04-22 21:15:00
5:35 PM,51.8,50.0,94,30.27,5.0,NNE,12.7,-,0.02,,Overcast,20,2013-04-22 21:35:00
5:55 PM,51.8,50.0,94,30.27,5.0,NNE,20.7,26.5,0.02,,Overcast,20,2013-04-22 21:55:00
6:15 PM,51.8,50.0,94,30.27,7.0,NNE,16.1,23.0,N/A,,Overcast,20,2013-04-22 22:15:00
6:35 PM,51.8,50.0,94,30.26,5.0,NNE,13.8,21.9,N/A,,Overcast,20,2013-04-22 22:35:00
6:55 PM,51.8,50.0,94,30.26,5.0,NNE,13.8,25.3,N/A,,Overcast,20,2013-04-22 22:55:00
7:15 PM,51.8,50.0,94,30.26,5.0,NNE,18.4,25.3,N/A,,Overcast,30,2013-04-22 23:15:00
7:35 PM,50.0,50.0,100,30.26,3.0,NNE,15.0,18.4,N/A,Rain,Light Rain,20,2013-04-22 23:35:00
7:55 PM,50.0,50.0,100,30.26,5.0,NNE,12.7,21.9,N/A,,Overcast,20,2013-04-22 23:55:00
8:15 PM,50.0,50.0,100,30.26,7.0,NNE,15.0,20.7,0.01,Rain,Light Rain,20,2013-04-23 00:15:00
8:35 PM,50.0,50.0,100,30.26,7.0,NNE,13.8,19.6,0.01,,Drizzle,20,2013-04-23 00:35:00
8:55 PM,50.0,50.0,100,30.26,4.0,NNE,11.5,24.2,0.02,,Drizzle,20,2013-04-23 00:55:00
9:15 PM,50.0,50.0,100,30.26,5.0,NNE,12.7,20.7,0.02,,Drizzle,20,2013-04-23 01:15:00
9:35 PM,50.0,50.0,100,30.26,5.0,NNE,10.4,18.4,0.03,,Drizzle,30,2013-04-23 01:35:00
9:55 PM,50.0,50.0,100,30.27,5.0,NNE,12.7,18.4,0.08,Rain,Light Rain,20,2013-04-23 01:55:00
10:15 PM,50.0,50.0,100,30.27,7.0,NNE,10.4,-,0.01,Rain,Rain,20,2013-04-23 02:15:00
10:35 PM,50.0,48.2,94,30.27,7.0,NNE,11.5,-,0.03,Rain,Light Rain,30,2013-04-23 02:35:00
10:55 PM,50.0,48.2,94,30.26,7.0,NNE,11.5,-,0.04,Rain,Light Rain,20,2013-04-23 02:55:00
11:15 PM,50.0,48.2,94,30.26,7.0,NNE,12.7,19.6,N/A,,Overcast,20,2013-04-23 03:15:00
11:35 PM,50.0,48.2,94,30.26,5.0,NNE,12.7,-,0.01,Rain,Rain,20,2013-04-23 03:35:00
11:55 PM,50.0,48.2,94,30.25,5.0,NNE,12.7,16.1,0.05,Rain,Light Rain,20,2013-04-23 03:55:00